EHI
3 2 1 0 0 0 0 0 0 0 0 0 0 0 0 0 0 0 0 0 0 0 0 0 0 0 0 0 0 0 0 0 0 0 0 0 0 0 0 0 0 0 0
3 2 1 0 0 0 0 0 0 0 0 0 0 0 0 0 0 0 0 0 0 0 0 0 0 0 0 0 0 0 0 0 0 0 0 0 0 0 0 0 0 0 0
2 2 1 0 0 0 0 0 0 0 0 0 0 0 0 0 0 0 0 0 0 0 0 0 0 0 0 0 0 0 0 0 0 0 0 0 0 0 0 0 0 0 0
1 1 0 0 0 0 0 0 0 0 0 0 0 0 0 0 0 0 0 0 0 0 0 0 0 0 0 0 0 0 0 0 0 0 0 0 0 0 0 0 0 0 0
0 0 0 0 0 0 0 0 0 0 0 0 0 0 0 0 0 0 0 0 0 0 0 0 0 0 0 0 0 0 0 0 0 0 0 0 0 0 0 0 0 0 0
0 0 0 0 0 0 0 0 0 0 0 0 0 0 0 0 0 0 0 0 0 0 0 0 0 0 0 0 0 0 0 0 0 0 0 0 0 0 0 0 0 0 0
0 0 0 0 0 0 0 0 0 0 0 0 0 0 0 0 0 0 0 0 0 0 0 0 0 0 0 0 0 0 0 0 0 0 0 0 0 0 0 0 0 0 0
0 0 0 0 0 0 0 0 0 0 0 0 0 0 0 0 0 0 0 0 0 0 0 0 0 0 0 0 0 0 0 0 0 0 0 0 0 0 0 0 0 0 0
0 0 0 0 0 0 0 0 0 0 0 0 0 0 0 0 0 0 0 0 0 0 0 0 0 0 0 0 0 0 0 0 0 0 0 0 0 0 0 0 0 0 0
0 0 0 0 0 0 0 0 0 0 0 0 0 0 0 0 0 0 0 0 0 0 0 0 0 0 0 0 0 0 0 0 0 0 0 0 0 0 0 0 0 0 0
0 0 0 0 0 0 0 0 0 0 0 0 0 0 0 0 0 0 0 0 0 0 0 0 0 0 0 0 0 0 0 0 0 0 0 0 0 0 0 0 0 0 0
0 0 0 0 0 0 0 0 0 0 0 0 0 0 0 0 0 0 0 0 0 0 0 0 0 0 0 0 0 0 0 0 0 0 0 0 0 0 0 0 0 0 0
0 0 0 0 0 0 0 0 1 2 1 1 1 1 1 1 1 0 0 0 0 0 0 0 0 0 0 0 0 0 0 0 0 0 0 0 0 0 0 0 0 0 0
0 0 0 0 0 0 0 1 2 3 3 2 2 2 2 2 1 0 0 0 0 0 0 0 0 0 0 0 0 0 0 0 0 0 0 0 0 0 0 0 0 0 0
0 0 0 0 0 1 1 2 2 3 3 2 2 2 1 1 0 0 0 0 0 0 0 0 0 0 0 0 0 0 0 0 0 0 0 0 0 0 0 0 0 0 0
0 0 0 0 1 2 2 2 1 2 1 1 1 1 0 0 0 0 0 0 0 0 0 0 0 0 0 0 0 0 0 0 0 0 0 0 0 0 0 0 0 0 0
0 0 0 1 2 3 3 2 1 0 0 0 0 0 0 0 0 0 0 0 0 0 0 0 0 0 0 0 0 0 0 0 0 0 0 0 0 0 0 0 0 0 0
0 0 0 1 2 3 2 2 1 0 0 0 0 0 0 0 0 0 0 0 0 0 0 0 0 0 0 0 0 0 0 0 0 0 0 0 0 0 0 0 0 0 0
0 0 0 1 2 1 1 1 0 0 0 0 0 0 0 0 0 0 0 0 0 0 0 0 0 0 0 0 0 0 0 0 0 0 0 0 0 0 0 0 0 0 0
0 0 1 2 2 1 0 0 0 0 0 0 0 0 0 0 0 0 0 0 0 0 0 0 0 0 0 0 0 0 0 0 0 0 0 0 0 0 0 0 0 0 0
0 0 1 2 2 1 0 0 0 0 0 0 0 0 0 0 0 0 0 0 0 0 0 0 0 0 0 0 0 0 0 0 0 0 0 0 0 0 0 0 0 0 0
0 0 1 2 1 0 0 0 0 0 0 0 0 0 0 0 0 0 0 0 0 0 0 0 0 0 0 0 0 0 0 0 0 0 0 0 0 0 0 0 0 0 0
0 0 1 1 0 0 0 0 0 0 0 0 0 0 0 0 0 0 0 0 0 0 0 0 0 0 0 0 0 0 0 0 0 0 0 0 0 0 0 0 0 0 0
0 0 0 0 0 0 0 0 0 0 0 0 0 0 0 0 0 0 0 0 0 0 0 0 0 0 0 0 0 0 0 0 0 0 0 0 0 0 0 0 0 0 0
0 0 0 0 0 0 0 0 0 0 0 0 0 0 0 0 0 0 0 0 0 0 0 0 0 0 0 0 0 0 0 0 0 0 0 0 0 0 0 0 0 0 0
0 0 0 0 0 0 0 0 0 0 0 0 0 0 0 0 0 0 0 0 0 0 0 0 0 0 0 0 0 0 0 0 0 0 0 0 0 0 0 0 0 0 0
Wind_Speed
3 3 2 2 2 2 3 3 3 3 3 3 3 3 3 4 4 4 4 4 4 4 3 4 4 3 3 3 3 3 3 3 4 1 1 1 2 2 2 2 2 2 2
3 3 3 3 2 2 3 3 3 3 3 3 3 3 4 3 4 5 5 5 5 5 5 4 4 4 4 3 3 4 3 3 4 4 2 2 2 3 2 2 2 2 1
3 3 3 3 3 3 3 3 3 3 3 2 3 3 4 3 4 4 4 5 5 5 5 5 5 5 5 3 4 4 3 4 3 5 3 1 1 2 2 1 2 1 1
2 3 3 4 4 4 3 3 3 2 3 3 3 3 4 3 3 3 3 4 4 5 5 5 5 7 7 6 5 5 5 4 4 5 4 2 2 2 2 2 1 0 0
2 3 4 4 3 3 3 3 3 2 3 3 3 2 3 3 3 4 3 4 4 4 3 4 5 7 8 7 6 6 6 5 5 4 4 2 2 3 3 2 2 1 1
3 4 4 3 3 4 4 3 3 3 2 2 2 3 3 3 5 6 5 4 4 4 4 4 4 5 8 9 10 11 11 9 7 5 4 5 4 4 3 3 3 2 1
3 3 3 4 4 4 4 4 4 4 3 3 3 2 3 4 6 7 7 4 4 5 5 4 4 4 5 5 7 10 10 11 12 9 7 7 6 6 6 5 4 3 3
3 3 3 4 4 4 4 4 4 4 4 4 4 3 3 4 6 7 7 4 4 4 5 5 5 5 6 6 6 5 4 5 7 6 6 6 6 6 7 6 5 3 1
4 4 4 4 4 4 5 5 5 4 4 4 4 4 4 4 6 7 7 4 3 3 4 5 6 6 9 10 8 6 5 3 4 6 6 6 7 9 8 5 4 4 2
5 5 4 4 4 5 6 5 4 4 5 4 4 4 5 4 6 7 8 4 3 3 2 4 7 8 10 12 8 8 7 5 4 4 3 4 4 6 9 7 6 5 3
4 3 3 4 4 5 5 4 4 4 4 4 4 4 4 5 6 8 8 5 5 4 3 3 4 9 11 13 11 8 9 7 5 5 4 3 2 3 4 4 4 5 4
3 3 3 3 3 3 3 3 3 4 4 4 3 3 3 4 5 7 8 7 6 4 5 4 5 9 10 11 9 8 10 8 4 4 3 3 3 3 3 3 4 3 3
3 3 3 3 2 2 3 3 3 3 3 4 4 4 3 3 4 7 8 8 7 4 3 5 7 9 9 8 9 10 9 5 5 4 4 4 3 3 3 2 2 2 1
4 4 3 2 2 2 2 3 3 4 4 4 4 4 4 3 3 4 4 5 5 4 2 3 5 7 6 6 6 6 5 5 6 5 4 3 2 2 3 3 2 2 1
4 4 3 3 3 3 2 3 4 4 5 5 4 4 4 5 6 7 6 5 4 4 3 2 2 3 4 3 3 4 4 4 4 4 4 3 3 3 2 2 2 3 3
3 3 3 2 2 2 2 2 3 4 6 7 7 6 5 6 6 8 8 7 7 7 4 3 4 5 6 6 6 5 5 5 5 5 4 5 5 5 3 2 3 3 3
4 4 3 3 3 2 2 2 2 3 3 5 6 6 6 6 7 8 8 7 7 8 4 4 5 6 5 5 5 5 5 5 5 5 5 5 5 4 4 4 4 3 3
4 5 4 3 3 3 3 3 3 3 2 2 3 4 5 5 6 6 7 6 4 5 4 4 5 5 5 5 6 5 5 4 4 5 5 5 5 5 5 5 5 5 4
4 3 3 3 3 3 3 3 3 3 3 2 1 2 3 4 4 5 7 4 4 5 5 4 4 4 5 5 5 6 6 6 5 5 5 6 5 5 5 5 5 6 5
4 6 5 3 3 3 3 3 3 3 3 3 3 3 2 2 2 3 4 4 4 5 5 5 4 4 4 5 5 5 5 6 6 6 6 6 5 6 6 6 6 5 5
4 4 5 3 3 3 3 3 3 3 3 3 3 3 4 3 4 4 4 4 5 5 5 5 4 4 4 4 4 5 6 6 6 6 6 6 6 6 5 5 6 6 5
4 3 4 4 3 3 3 3 3 3 4 4 2 3 5 3 3 3 4 4 4 4 4 4 4 5 5 5 5 5 6 6 5 5 5 5 5 6 5 5 5 5 5
3 4 4 3 3 3 3 3 3 3 3 3 3 3 3 3 3 3 4 4 3 3 3 4 4 4 4 5 5 6 6 7 6 6 6 5 5 5 5 6 7 6 6
3 4 3 3 3 3 3 3 3 3 3 3 3 3 4 4 4 3 3 3 3 3 3 4 5 6 7 6 4 5 5 5 5 6 8 7 6 5 5 5 6 7 7
3 3 3 3 3 3 3 3 3 3 3 3 3 3 3 3 3 3 3 3 3 3 4 4 3 5 6 7 6 5 7 8 7 5 6 6 6 6 6 6 6 6 6
2 2 2 2 2 3 3 3 3 3 3 3 3 3 3 3 3 3 3 3 3 3 3 3 4 4 5 5 6 7 7 8 8 8 6 5 6 6 6 5 6 6 6
Wind_Direction
208 215 201 205 200 184 194 206 204 208 203 198 199 202 204 200 187 181 193 186 182 185 179 169 176 164 160 165 157 150 142 132 139 165 133 130 127 128 106 91 80 62 76
209 209 213 213 206 198 208 215 204 203 206 204 198 197 200 196 193 192 199 192 187 188 188 176 184 171 166 167 163 164 157 148 141 147 139 132 142 151 134 130 121 108 82
209 210 221 220 216 216 213 215 208 202 206 201 191 192 196 196 194 197 196 193 191 192 189 189 190 168 173 171 166 163 157 146 132 141 146 134 122 136 112 113 109 72 115
212 208 218 219 219 219 214 204 207 202 195 193 199 203 195 192 191 186 184 186 188 191 192 193 190 182 181 173 168 165 153 138 133 137 138 135 134 138 130 130 103 12 58
216 217 225 225 218 212 210 206 203 204 203 196 192 212 210 196 196 185 182 183 186 188 190 194 193 184 179 173 168 165 155 148 145 145 148 139 154 159 178 169 155 152 343
213 227 228 219 217 210 207 203 196 198 191 185 195 201 206 214 206 190 181 179 182 186 195 199 197 185 184 181 173 167 164 162 163 160 165 176 189 183 163 160 145 143 230
230 233 228 218 219 217 206 194 196 197 189 184 202 204 210 219 205 192 186 180 186 194 194 190 194 188 175 176 173 169 173 174 169 167 173 187 185 185 167 165 174 175 194
241 238 230 225 224 220 202 203 207 196 193 196 203 206 213 221 203 191 186 181 182 187 192 192 187 183 177 168 160 159 171 184 185 178 183 189 184 178 177 176 172 151 123
255 244 234 225 220 216 211 215 213 197 199 202 199 201 207 225 208 188 177 179 183 194 199 194 184 183 179 165 159 163 171 195 194 180 172 169 167 167 158 137 139 144 184
260 254 240 226 218 218 218 219 214 201 203 197 200 207 209 218 213 196 181 177 186 202 208 200 192 186 179 170 170 169 178 190 169 163 162 168 169 171 168 167 166 161 165
266 267 255 238 229 225 218 214 207 201 196 199 203 215 221 220 214 202 190 185 192 194 203 207 202 187 182 179 177 180 184 171 167 162 159 156 153 165 178 178 173 168 169
273 269 260 247 241 242 215 212 203 192 193 202 208 222 234 230 213 205 196 196 191 193 206 208 197 185 182 180 181 182 169 155 152 152 158 172 179 185 186 182 181 180 182
276 269 263 253 241 222 208 205 201 198 200 207 208 218 229 229 215 209 200 196 196 197 208 201 189 185 180 182 187 177 163 159 159 167 185 195 192 180 158 146 139 129 94
270 270 260 248 248 230 217 206 201 202 207 211 214 221 225 230 218 206 201 195 194 196 193 186 178 174 172 175 177 178 176 177 175 183 188 180 154 152 165 161 157 152 128
280 277 265 246 229 221 225 221 215 217 211 213 217 212 212 228 223 202 190 196 192 187 158 151 152 158 174 181 183 185 182 178 184 177 172 170 171 174 182 170 158 154 169
281 279 269 246 235 226 229 274 253 232 230 230 228 224 230 230 216 202 201 196 186 169 158 185 189 190 193 192 192 192 192 193 191 183 180 182 184 186 185 175 167 175 192
266 266 265 239 224 220 221 226 258 279 249 237 236 232 230 224 213 202 199 190 178 170 185 202 199 197 199 196 195 195 197 197 186 183 186 189 187 186 183 188 188 191 204
270 270 263 236 222 214 217 226 229 229 243 267 259 237 226 220 214 199 181 159 176 190 205 206 210 203 200 197 196 197 196 186 182 186 186 188 187 186 188 193 196 200 205
269 267 255 239 227 217 211 215 223 225 223 227 244 249 221 210 199 186 167 178 195 206 211 212 214 210 206 204 200 196 193 193 192 190 192 193 192 190 197 201 201 203 200
268 273 264 242 230 223 212 210 216 218 217 212 216 224 199 176 184 193 196 202 205 210 210 213 214 212 209 208 202 194 193 195 195 198 199 197 196 196 201 201 200 200 204
267 264 261 244 226 218 211 213 218 218 218 219 225 229 206 198 201 204 203 206 208 210 211 211 212 210 208 206 203 198 198 201 200 201 202 200 197 201 203 201 203 204 203
253 247 236 223 217 216 219 218 219 222 221 218 223 220 209 207 205 209 211 216 218 217 211 208 211 210 205 205 204 201 202 203 203 202 203 201 199 200 200 201 202 201 201
247 246 235 223 210 216 216 219 222 222 221 221 222 219 213 211 214 218 218 221 224 222 217 213 213 216 216 210 210 205 205 207 205 199 197 199 201 203 203 204 203 201 205
242 238 225 216 209 204 205 213 219 224 224 221 221 222 218 214 216 224 226 221 221 225 222 221 220 220 222 217 212 212 209 207 201 198 195 198 201 203 203 205 206 207 208
244 229 216 211 204 202 204 210 217 222 226 225 224 221 215 211 211 220 227 221 220 219 223 224 224 220 221 221 216 216 212 206 205 199 194 196 202 204 203 204 206 207 210
238 216 211 210 207 208 211 213 219 223 225 229 228 223 217 211 208 214 221 219 219 223 226 226 227 222 224 225 218 214 209 203 201 200 195 195 201 205 202 204 205 207 207